Change the Weather History Date:

Tuesday, June 10, 2014

  Actual Average Record
Temperature  
Mean Temperature 54 °F -  
Max Temperature 60 °F 62 °F 77 °F (1992)
Min Temperature 48 °F 44 °F 27 °F (1985)
Degree Days  
Heating Degree Days 11    
Growing Degree Days 4 (Base 50)    
Moisture  
Dew Point 45 °F    
Average Humidity 73    
Maximum Humidity 93    
Minimum Humidity 52    
Precipitation  
Precipitation 0.00 in - - ()
Sea Level Pressure  
Sea Level Pressure 30.12 in    
Wind  
Wind Speed 2 mph (SW)    
Max Wind Speed 13 mph    
Max Gust Speed -    
Visibility 10 miles    
Events      
Averages and records for this station are not official NWS values.
T = Trace of Precipitation, MM = Missing Value Source: NWS Daily Summary

Daily Weather History Graph

Daily Weather History Graph

Search for Another Location

Airport or City:

Trip Planner

Search our weather history database for the weather conditions in past years. The results will help you decide how hot, cold, wet, or windy it might be!

Date:

Astronomy

Jun. 10, 2014 Rise Set
Actual Time 3:57 AM AKDT 10:07 PM AKDT
Civil Twilight 2:41 AM AKDT 11:24 PM AKDT
Nautical Twilight Sun does not rise Sun does not rise
Astronomical Twilight Sun does not rise Sun does not rise
Moon 7:05 PM AKDT (6/10) 2:52 AM AKDT (6/10)
Length of Visible Light 20h 43m
Length of Day
18h 10m
Waxing Gibbous, 93% of the Moon is Illuminated
Jun 10
Waxing Gibbous
Jun 12
Full
Jun 19
Last Quarter
Jun 27
New
Jul 5
First Quarter

Hourly Weather History & Observations

Time (AKDT) Temp. Dew Point Humidity Pressure Visibility Wind Dir Wind Speed Gust Speed Precip Events Conditions
12:16 AM 51.8 °F 46.4 °F 82% 30.10 in 10.0 mi Calm Calm - N/A   Overcast
12:36 AM 51.8 °F 46.4 °F 82% 30.10 in 10.0 mi Calm Calm - N/A   Overcast
12:56 AM 51.8 °F 46.4 °F 82% 30.11 in 10.0 mi Calm Calm - N/A   Overcast
1:16 AM 50.0 °F 46.4 °F 87% 30.11 in 10.0 mi Calm Calm - N/A   Overcast
1:36 AM 51.8 °F 46.4 °F 82% 30.11 in 10.0 mi Calm Calm - N/A   Overcast
1:56 AM 50.0 °F 46.4 °F 87% 30.11 in 10.0 mi Calm Calm - N/A   Overcast
2:16 AM 50.0 °F 46.4 °F 87% 30.11 in 10.0 mi Calm Calm - N/A   Overcast
2:36 AM 50.0 °F 46.4 °F 87% 30.11 in 10.0 mi Calm Calm - N/A   Overcast
2:56 AM 50.0 °F 46.4 °F 87% 30.11 in 10.0 mi Calm Calm - N/A   Overcast
3:16 AM 50.0 °F 44.6 °F 82% 30.12 in 10.0 mi Calm Calm - N/A   Overcast
3:36 AM 48.2 °F 44.6 °F 87% 30.11 in 10.0 mi Calm Calm - N/A   Mostly Cloudy
3:56 AM 50.0 °F 46.4 °F 87% 30.11 in 10.0 mi Calm Calm - N/A   Overcast
4:16 AM 48.2 °F 44.6 °F 87% 30.11 in 10.0 mi Calm Calm - N/A   Overcast
4:36 AM 48.2 °F 44.6 °F 87% 30.12 in 10.0 mi Calm Calm - N/A   Overcast
4:56 AM 48.2 °F 44.6 °F 87% 30.11 in 10.0 mi Calm Calm - N/A   Overcast
5:16 AM 48.2 °F 46.4 °F 93% 30.12 in 10.0 mi Calm Calm - N/A   Overcast
5:56 AM 50.0 °F 46.4 °F 87% 30.12 in 10.0 mi Calm Calm - N/A   Overcast
6:16 AM 50.0 °F 46.4 °F 87% 30.12 in 10.0 mi Calm Calm - N/A   Overcast
6:36 AM 51.8 °F 46.4 °F 82% 30.12 in 10.0 mi Calm Calm - N/A   Overcast
6:56 AM 51.8 °F 46.4 °F 82% 30.12 in 10.0 mi Calm Calm - N/A   Overcast
7:16 AM 51.8 °F 46.4 °F 82% 30.12 in 10.0 mi Calm Calm - N/A   Overcast
7:36 AM 53.6 °F 46.4 °F 77% 30.12 in 10.0 mi WSW 3.5 mph - N/A   Overcast
7:56 AM 53.6 °F 44.6 °F 72% 30.12 in 10.0 mi WSW 3.5 mph - N/A   Overcast
8:16 AM 53.6 °F 46.4 °F 77% 30.12 in 10.0 mi Calm Calm - N/A   Overcast
8:36 AM 55.4 °F 46.4 °F 72% 30.12 in 10.0 mi Calm Calm - N/A   Overcast
9:16 AM 53.6 °F 44.6 °F 72% 30.12 in 10.0 mi SW 3.5 mph - N/A   Overcast
9:36 AM 53.6 °F 44.6 °F 72% 30.12 in 10.0 mi WSW 3.5 mph - N/A   Overcast
9:56 AM 55.4 °F 46.4 °F 72% 30.12 in 10.0 mi South 5.8 mph - N/A   Mostly Cloudy
10:16 AM 55.4 °F 44.6 °F 67% 30.12 in 10.0 mi SW 8.1 mph - N/A   Mostly Cloudy
10:36 AM 55.4 °F 44.6 °F 67% 30.12 in 10.0 mi SSW 5.8 mph - N/A   Overcast
10:56 AM 57.2 °F 46.4 °F 67% 30.13 in 10.0 mi WSW 6.9 mph - N/A   Overcast
11:16 AM 57.2 °F 44.6 °F 63% 30.13 in 10.0 mi SW 4.6 mph - N/A   Overcast
11:36 AM 57.2 °F 44.6 °F 63% 30.13 in 10.0 mi SW 5.8 mph - N/A   Overcast
11:56 AM 59.0 °F 44.6 °F 59% 30.13 in 10.0 mi SW 10.4 mph - N/A   Overcast
12:16 PM 57.2 °F 44.6 °F 63% 30.13 in 10.0 mi SW 5.8 mph - N/A   Overcast
12:36 PM 57.2 °F 46.4 °F 67% 30.14 in 10.0 mi North 3.5 mph - N/A   Overcast
3:16 PM 59.0 °F 44.6 °F 59% 30.13 in - SSW 9.2 mph - N/A   Partly Cloudy
3:36 PM 57.2 °F 42.8 °F 59% 30.13 in - SW 12.7 mph - N/A   Partly Cloudy
3:56 PM 59.0 °F 44.6 °F 59% 30.12 in 10.0 mi SW 9.2 mph - N/A   Mostly Cloudy
4:16 PM 57.2 °F 44.6 °F 63% 30.12 in 10.0 mi SSW 9.2 mph - N/A   Scattered Clouds
4:36 PM 60.8 °F 42.8 °F 52% 30.12 in 10.0 mi SSW 10.4 mph - N/A   Mostly Cloudy
4:56 PM 59.0 °F 42.8 °F 55% 30.12 in 10.0 mi SSW 8.1 mph - N/A   Overcast
5:16 PM 57.2 °F 42.8 °F 59% 30.12 in 10.0 mi SW 10.4 mph - N/A   Overcast
5:36 PM 57.2 °F 42.8 °F 59% 30.11 in 10.0 mi SSW 6.9 mph - N/A   Overcast
5:56 PM 57.2 °F 44.6 °F 63% 30.11 in 10.0 mi SW 10.4 mph - N/A   Overcast
6:16 PM 57.2 °F 42.8 °F 59% 30.11 in 10.0 mi SW 11.5 mph - N/A   Overcast
6:36 PM 57.2 °F 42.8 °F 59% 30.12 in 10.0 mi SW 8.1 mph - N/A   Overcast
6:56 PM 55.4 °F 44.6 °F 67% 30.12 in 10.0 mi SW 5.8 mph - N/A   Overcast
7:16 PM 55.4 °F 42.8 °F 63% 30.12 in 10.0 mi WSW 10.4 mph - N/A   Overcast
7:36 PM 55.4 °F 42.8 °F 63% 30.12 in 10.0 mi SW 6.9 mph - N/A   Overcast
7:56 PM 55.4 °F 42.8 °F 63% 30.12 in 10.0 mi SW 5.8 mph - N/A   Overcast
8:16 PM 53.6 °F 42.8 °F 67% 30.12 in 10.0 mi SSE 5.8 mph - N/A   Overcast
8:36 PM 55.4 °F 42.8 °F 63% 30.12 in 10.0 mi ESE 4.6 mph - N/A   Overcast
8:56 PM 53.6 °F 44.6 °F 72% 30.12 in 10.0 mi South 4.6 mph - N/A   Overcast
9:16 PM 53.6 °F 42.8 °F 67% 30.12 in 10.0 mi South 5.8 mph - N/A   Overcast
9:36 PM 53.6 °F 44.6 °F 72% 30.12 in 10.0 mi South 3.5 mph - N/A   Overcast
9:56 PM 53.6 °F 44.6 °F 72% 30.12 in 10.0 mi Calm Calm - N/A   Overcast
10:16 PM 53.6 °F 42.8 °F 67% 30.12 in 10.0 mi Calm Calm - N/A   Overcast
10:36 PM 53.6 °F 44.6 °F 72% 30.12 in 10.0 mi Calm Calm - N/A   Overcast
10:56 PM 51.8 °F 42.8 °F 71% 30.12 in 10.0 mi Calm Calm - N/A   Overcast
11:16 PM 51.8 °F 44.6 °F 76% 30.12 in 10.0 mi Calm Calm - N/A   Partly Cloudy
11:36 PM 48.2 °F 44.6 °F 87% 30.12 in 10.0 mi Calm Calm - N/A   Clear
11:56 PM 48.2 °F 42.8 °F 82% 30.12 in 10.0 mi Calm Calm - N/A   Clear